Regional Weather Roundup
Issued by NWS Goodland, KS

Home | Current Version | Previous Version | Graphics & Text | Print | Product List | Glossary On
Versions: 1 2 3 4 5 6 7 8 9 10 11 12 13 14 15 16 17 18 19 20 21 22 23 24 25 26 27 28 29 30 31 32 33 34 35 36 37 38 39 40 41 42 43 44 45 46 47 48 49 50
894
ASUS43 KGLD 301008
RWRGLD

GOODLAND FORECAST AREA HOURLY WEATHER ROUNDUP
NATIONAL WEATHER SERVICE GOODLAND KS
400 AM MDT SAT JUL 30 2016

...OFFICIAL OBSERVATIONS...

CITY           SKY/WX    TMP DP  RH WIND       PRES   REMARKS
GOODLAND KS    PTCLDY    66  62  87 SW6       30.05R
HILL CITY KS   PTCLDY    66  65  96 E3        30.01F
IMPERIAL NEB   CLEAR     63  60  90 SE7       30.01F
MCCOOK NEB     CLEAR     65  63  93 SE8       30.00F
AKRON CO       CLOUDY    63  55  75 SW10      30.07S
BURLINGTON CO  PTCLDY    65  54  67 SW14      30.06F
LIMON CO       CLOUDY    62  61  96 SE20      30.12F
$$

...UNOFFICIAL OBSERVATIONS...

CITY           SKY/WX    TMP DP  RH WIND       PRES   REMARKS
LENORA KS        N/A     65  32  29 MISG        N/A
NORTON KS      CLEAR     64  61  88 SE5       30.01S
SHARON SPRINGS   N/A     67  62  85 S7          N/A
KIT CARSON CO    N/A     65  59  82 MISG        N/A
YUMA CO          N/A     62  58  87 CALM        N/A
$$




USA.gov is the U.S. government's official web portal to all federal, state and local government web resources and services.